User: anonymous   Login
Location: Unspecified
(0.0000°N, 0.0000°E)
Time: 01:05:35
(UTC+00:00)
Language:

ONEWEB-0378 - Orbit

View from above orbital plane
View from above orbital plane
View from above satellite
View from above satellite

Ground track
Ground track

The orbit is defined by the following mean orbital elements,

1 49304U          26145.37986683 +.00000000 +00000-0 +25852-3 0 00006
2 49304  87.9170 278.9887 0001992  96.6876 263.4484 13.20773325    00
Epoch (UTC): 25 May 2026 09:07:00
Eccentricity: 0.0001992
inclination: 87.9170°
perigee height: 1180 km
apogee height: 1183 km
right ascension of ascending node: 278.9887°
argument of perigee: 96.6876°
revolutions per day: 13.20773325
mean anomaly at epoch: 263.4484°

The dashed part of the orbit path shows where the satellite is in the earth's shadow,  

DLR